Hourly Data Report for July 15, 2021

SARNIA
ONTARIO
Current Station Operator: NAVCAN

42°59'58.000" N
82°18'32.000" W
181.40 m
6127510
71704
YZR

Download Data

Hourly Data (July 2021)
Hourly Data Report for July 15, 2021
TIME
LST
Temp Definition
°C
Dew Point Definition
°C
Rel Hum Definition
%
Precip. Amount Definition
mm

Wind Dir Definition
10's deg

Wind Spd Definition
km/h
Visibility Definition
km
Stn Press Definition
kPa
Hmdx Definition


Wind Chill Definition


Weather Definition


00:00 21.3 20.0 92 0.0 18 11 16.1 99.62 29   LegendNANA
01:00 21.2 20.0 93 0.0 18 9 16.1 99.64 29   LegendNANA
02:00 21.3 20.1 93 0.0 19 11 16.1 99.63 29   LegendNANA
03:00 21.2 20.2 94 0.0 18 8 16.1 99.58 29   LegendNANA
04:00 21.0 20.0 94 0.0 18 11 16.1 99.49 29   LegendNANA
05:00 20.9 19.9 94 0.0 17 13 16.1 99.42 28   LegendNANA
06:00 22.1 20.2 89 0.0 19 17 16.1 99.38 30   LegendNANA
07:00 22.8 20.6 87 0.0 19 18 16.1 99.35 31   LegendNANA
08:00 23.9 21.1 84 0.0 19 24 16.1 99.30 32   LegendNANA
09:00 25.1 21.2 78 0.0 21 26 16.1 99.27 34   LegendNANA
10:00 25.5 21.3 77 0.0 21 24 16.1 99.22 34   LegendNANA
11:00 26.3 21.4 74 0.0 22 24 16.1 99.23 35   LegendNANA
12:00 27.1 22.4 75 0.0 22 18 16.1 99.22 37   LegendNANA
13:00 27.5 19.5 61 0.0 26 21 16.1 99.20 35   LegendNANA
14:00 26.7 20.2 67 0.0 22 22 16.1 99.19 34   LegendNANA
15:00 27.6 20.0 63 0.0 24 22 16.1 99.11 35   LegendNANA
16:00 27.8 20.3 63 0.0 24 22 16.1 99.09 36   LegendNANA
17:00 27.5 19.5 61 0.0 23 26 16.1 99.10 35   LegendNANA
18:00 27.3 19.7 63 0.0 26 24 16.1 99.09 35   LegendNANA
19:00 25.2 20.5 75 0.0 29 15 16.1 99.16 33   LegendNANA
20:00 22.5 19.1 81 0.0 35 15 16.1 99.24 29   LegendNANA
21:00 21.4 19.0 86 0.0 33 8 16.1 99.30 28   LegendNANA
22:00 21.2 18.4 84 0.0 32 5 16.1 99.37 28   LegendNANA
23:00 20.3 18.3 88 0.0 33 9 16.1 99.38 27   LegendNANA

Notes on Data Quality.

Legend

  • E = Estimated
  • M = Missing
  • NA = Not Available*
  • [empty] = Indicates an unobserved value
Date modified: